Home   Weather   Aktau   Past weeks

Flag for Kazakhstan Past Weather in Aktau, Kazakhstan — Yesterday and Last 2 Weeks

Now
81 °F

Passing clouds.


Feels Like: 79 °F
Forecast: 74 / 88 °F
Wind: 8 mph from Northeast

Location: Aktau

Current Time: Aug 18, 2017 at 12:50:30 am

Latest Report: Aug 18, 2017 at 12:00 am


Visibility: N/A

Pressure: 29.98 "Hg

Humidity: 17%

Dew Point: 32 °F

Location of AktauLocation

Past Weather in Aktau — Graph

°F

Aktau Temperature Yesterday

Maximum temperature yesterday: 93 °F (at 1:00 pm)
Minimum temperature yesterday: 72 °F (at 3:00 am)
Average temperature yesterday: 82 °F

High & Low Weather Summary for the Past Weeks

 TemperatureHumidityPressure
High108 °F (Aug 8, 12:00 pm)89% (Aug 3, 7:30 am)30.04 "Hg (Aug 3, 7:30 am)
Low61 °F (Aug 12, 7:00 am)7% (Aug 12, 2:00 pm)29.77 "Hg (Aug 10, 2:30 am)
Average84 °F30%29.90 "Hg
* Reported Aug 2 11:00 pm — Aug 17 11:30 pm, Aktau. Weather by CustomWeather, © 2017

Note: Actual official high and low records may vary slightly from our data, if they occured in-between our weather recording intervals... More about our weather records

Advertising

Aktau Weather History for the Previous 24 Hours

Scroll right to see more
 ConditionsComfort  
Time TempWeatherWind HumidityBarometerVisibility
11:30 pm
Thu, Aug 17
81 °FPassing clouds.3 mph20%29.98 "HgN/A
11:00 pm81 °FPassing clouds.6 mph21%29.98 "HgN/A
10:30 pm81 °FPartly sunny.6 mph21%29.98 "HgN/A
10:00 pm81 °FSunny.1 mph23%29.98 "Hg10 mi
9:30 pm81 °FSunny.6 mph24%29.98 "Hg10 mi
9:00 pm81 °FSunny.6 mph26%29.95 "Hg10 mi
8:30 pm82 °FSunny.8 mph25%29.98 "Hg10 mi
8:00 pm82 °FPassing clouds.8 mph26%29.98 "HgN/A
7:30 pm82 °FPartly sunny.6 mph28%29.98 "HgN/A
7:00 pm84 °FPassing clouds.8 mph23%29.98 "HgN/A
6:30 pm84 °FPassing clouds.6 mph22%29.98 "HgN/A
6:00 pm84 °FPassing clouds.8 mph23%29.98 "HgN/A
5:30 pm86 °FPartly sunny.6 mph20%29.98 "HgN/A
5:00 pm86 °FPartly sunny.8 mph19%29.98 "HgN/A
4:30 pm88 °FPartly sunny.8 mph19%29.98 "HgN/A
4:00 pm90 °FPassing clouds.13 mph14%29.98 "HgN/A
3:30 pm90 °FPassing clouds.13 mph15%29.98 "HgN/A
3:00 pm91 °FSunny.13 mph14%29.98 "Hg10 mi
2:30 pm93 °FPassing clouds.10 mph10%30.01 "HgN/A
2:00 pm93 °FPassing clouds.10 mph11%30.01 "HgN/A
1:30 pm93 °FPassing clouds.10 mph11%30.01 "HgN/A
1:00 pm93 °FPassing clouds.10 mph11%30.01 "HgN/A
12:30 pm91 °FPassing clouds.13 mph12%30.01 "HgN/A
12:00 pm91 °FPassing clouds.15 mph11%30.01 "HgN/A
11:30 am91 °FSunny.17 mph11%30.01 "Hg10 mi
11:00 am90 °FSunny.17 mph12%30.01 "Hg10 mi
10:30 am88 °FSunny.20 mph13%30.01 "Hg10 mi
10:00 am88 °FPleasantly warm.17 mph13%30.01 "HgN/A
9:30 am84 °FPleasantly warm.17 mph15%30.01 "HgN/A
9:00 am82 °FSunny.17 mph17%30.01 "Hg10 mi
8:30 am81 °FClear.15 mph18%30.01 "Hg10 mi
8:00 am79 °FClear.13 mph20%30.01 "Hg10 mi
7:30 am77 °FClear.10 mph19%30.01 "Hg10 mi
7:00 am75 °FClear.13 mph21%30.01 "Hg10 mi
6:30 am75 °FClear.10 mph21%30.01 "Hg10 mi
6:00 am75 °FClear.10 mph21%29.98 "Hg10 mi
5:00 am77 °FClear.8 mph19%29.98 "Hg10 mi
4:30 am75 °FClear.10 mph22%29.98 "Hg10 mi
4:00 am72 °FClear.8 mph25%29.98 "Hg10 mi
3:30 am72 °FClear.8 mph25%29.98 "Hg10 mi
3:00 am72 °FClear.3 mph25%29.98 "Hg10 mi
2:30 am73 °FClear.6 mph23%29.98 "Hg10 mi
2:00 am75 °FClear.3 mph22%29.98 "Hg10 mi
1:30 am73 °FClear.8 mph23%29.98 "Hg10 mi
1:00 am75 °FClear.6 mph24%29.98 "Hg10 mi
12:30 am77 °FClear.6 mph22%29.98 "Hg10 mi
12:00 am77 °FClear.6 mph22%29.98 "Hg10 mi
Weather by CustomWeather, © 2017

See weather overviewHow to use our weather pages